Location: Unspecified
(0.0000°N, 0.0000°E)
Time: 18:57:59
(UTC+00:00)

CUTE-I - Pass Details

Date: 17 December 2017
Orbit: 810 x 826 km, 98.7° (Epoch: 15 January)

Event Time Altitude Azimuth Distance (km) Brightness Sun altitude
Rises 18:43:40 0° 189° (S) 3,361 ? -10.8°
Reaches altitude 10° 18:46:21 10° 201° (SSW) 2,426 ? -11.5°
Maximum altitude 18:50:47 27° 257° (WSW) 1,549 ? -12.5°
Drops below altitude 10° 18:55:13 10° 313° (NW) 2,418 ? -13.5°
Sets 18:57:55 0° 325° (NW) 3,347 ? -14.1°
